Le nostre stazioni meteo in Italia

Pubblicità
Il mio iltempo24.it
Brescia/Ghedi, Italia (16088): Temperatura & dewpoint: 09.11.2018 08:00:00 - 15.11.2018 08:00:00 (CET)Brescia/Ghedi, Italia (16088): velocità del vento: 09.11.2018 08:00:00 - 15.11.2018 08:00:00 (CET)Brescia/Ghedi, Italia (16088): direzione del vento: 09.11.2018 08:00:00 - 15.11.2018 08:00:00 (CET)Brescia/Ghedi, Italia (16088): reduced air pressure: 09.11.2018 08:00:00 - 15.11.2018 08:00:00 (CET)Brescia/Ghedi, Italia (16088): visibility: 09.11.2018 08:00:00 - 15.11.2018 08:00:00 (CET)
Data & Tempo tt [°C] td [°C] ff [km/h] ff [kn] dd ppp [hPa] vv [km]
15.11.2018 08:00:00 11,2 9,6 8 4 ENE 1027,0 0,8
15.11.2018 07:00:00 10,8 9,2 2 1 ONO 1027,2 0,2
15.11.2018 06:00:00 9,2 7,7 2 1 S 1027,9 1,5
15.11.2018 05:00:00 9,0 7,4 0 0 N 1027,9 0,2
15.11.2018 04:00:00 9,6 8,0 4 2 O 1028,1 0,2
15.11.2018 03:00:00 9,8 8,2 4 2 O 1028,1 0,2
15.11.2018 02:00:00 9,8 8,2 4 2 SO 1028,1 0,2
15.11.2018 01:00:00 10,0 8,4 2 1 OSO 1028,1 0,2
15.11.2018 00:00:00 10,0 8,4 4 2 S 1028,1 0,2
14.11.2018 23:00:00 11,0 10,1 2 1 ENE 1027,8 0,2
14.11.2018 22:00:00 12,2 11,4 0 0 N 1027,5 0,2
14.11.2018 21:00:00 13,0 12,4 5 3 O 1027,4 2,5
14.11.2018 20:00:00 13,0 12,5 5 3 O 1027,4 2,5
14.11.2018 19:00:00 14,0 13,5 4 2 O 1027,4 3,0
14.11.2018 18:00:00 14,9 13,6 4 2 OSO 1027,4 3,5
14.11.2018 17:00:00 16,1 13,2 2 1 SO 1027,3 3,5
14.11.2018 16:00:00 17,3 13,4 4 2 SO 1027,4 5
14.11.2018 15:00:00 18,7 13,5 4 2 SSO 1027,7 6
14.11.2018 14:00:00 18,5 13,6 4 2 OSO 1028,1 8
14.11.2018 13:00:00 18,2 13,5 4 2 SSO 1028,7 8
14.11.2018 12:00:00 16,5 13,6 5 3 SO 1029,3 8
14.11.2018 11:00:00 14,5 12,4 5 3 SO 1030,0 6
14.11.2018 10:00:00 12,8 10,9 5 3 SO 1029,7 0,4
14.11.2018 09:00:00 11,4 9,8 4 2 OSO 1029,2 0,2
14.11.2018 08:00:00 10,8 9,4 2 1 N 1028,9 0,1
14.11.2018 07:00:00 10,8 9,4 2 1 O 1028,6 0,2
14.11.2018 06:00:00 11,2 10,0 4 2 NO 1028,4 1,4
14.11.2018 05:00:00 14,0 12,7 4 2 ENE 1028,3 3,5
14.11.2018 04:00:00 13,8 12,4 4 2 ENE 1028,3 3,5
14.11.2018 03:00:00 13,0 11,6 5 3 E 1028,4 3,0
14.11.2018 02:00:00 12,0 10,9 5 3 E 1028,2 2,0
14.11.2018 01:00:00 12,0 10,9 4 2 E 1028,1 2,5
14.11.2018 00:00:00 12,2 11,1 5 3 SE 1028,0 2,5
13.11.2018 23:00:00 11,8 10,9 4 2 NNE 1028,0 2,5
13.11.2018 22:00:00 12,4 11,6 2 1 NO 1028,0 1,0
13.11.2018 21:00:00 13,2 12,4 2 1 O 1027,7 3,5
13.11.2018 20:00:00 14,0 13,2 2 1 SSO 1027,4 4,0
13.11.2018 19:00:00 15,0 14,2 5 3 OSO 1026,9 4,0
13.11.2018 18:00:00 15,6 14,3 5 3 OSO 1026,6 4,0
13.11.2018 17:00:00 16,8 15,2 5 3 O 1026,6 4,0
13.11.2018 16:00:00 17,0 14,7 8 4 OSO 1026,6 5
13.11.2018 15:00:00 17,0 14,5 8 4 O 1026,8 5
13.11.2018 14:00:00 17,0 14,8 11 6 O 1027,0 5
13.11.2018 13:00:00 16,2 14,2 11 6 OSO 1027,8 4,0
13.11.2018 12:00:00 15,2 13,4 8 4 OSO 1027,8 3,0
13.11.2018 11:00:00 15,0 13,2 5 3 ONO 1027,8 2,5
13.11.2018 10:00:00 14,5 12,9 8 4 NNO 1027,8 1,6
13.11.2018 09:00:00 14,0 12,4 8 4 ONO 1027,7 1,6
13.11.2018 08:00:00 14,0 12,4 5 3 ONO 1027,1 0,7
13.11.2018 07:00:00 14,2 12,6 8 4 ONO 1026,7 1,0
13.11.2018 06:00:00 14,4 13,8 8 4 ONO 1026,7 1,0
13.11.2018 05:00:00 14,4 13,8 8 4 ONO 1026,7 1,0
13.11.2018 04:00:00 14,6 14,0 8 4 O 1027,2 1,0
13.11.2018 03:00:00 14,6 14,0 8 4 O 1027,2 1,0
13.11.2018 02:00:00 14,2 13,6 5 3 OSO 1027,4 1,0
13.11.2018 01:00:00 14,4 13,8 5 3 O 1027,6 1,5
13.11.2018 00:00:00 14,8 14,3 5 3 O 1027,6 1,5
12.11.2018 23:00:00 14,8 14,3 5 3 O 1027,5 1,5
12.11.2018 22:00:00 15,0 14,7 4 2 S 1027,4 2,0
12.11.2018 21:00:00 15,2 14,7 4 2 OSO 1027,2 2,5
12.11.2018 20:00:00 15,0 14,7 4 2 OSO 1027,1 2,5
12.11.2018 19:00:00 15,2 14,7 4 2 OSO 1026,8 3,0
12.11.2018 18:00:00 15,6 14,8 4 2 OSO 1026,5 3,5
12.11.2018 17:00:00 15,8 14,7 5 3 OSO 1026,2 3,5
12.11.2018 16:00:00 16,2 14,2 5 3 OSO 1026,1 4,0
12.11.2018 15:00:00 17,0 14,8 8 4 OSO 1026,1 4,0
12.11.2018 14:00:00 16,8 14,4 8 4 OSO 1026,4 4,0
12.11.2018 13:00:00 17,0 14,7 5 3 OSO 1026,4 3,5
12.11.2018 12:00:00 16,4 14,2 4 2 OSO 1026,6 3,0
12.11.2018 11:00:00 16,0 14,4 4 2 OSO 1026,5 2,5
12.11.2018 10:00:00 14,8 13,8 2 1 N 1026,1 2,5
12.11.2018 09:00:00 14,0 13,4 4 2 NO 1025,6 1,6
12.11.2018 08:00:00 14,0 13,5 2 1 S 1025,3 1,2
12.11.2018 07:00:00 13,8 13,5 0 0 N 1025,1 1,4
12.11.2018 06:00:00 14,0 13,7 2 1 SSO 1024,7 2,8
12.11.2018 05:00:00 14,2 13,9 4 2 E 1024,7 3,0
12.11.2018 04:00:00 14,4 14,1 2 1 E 1024,5 3,0
12.11.2018 03:00:00 14,8 12,8 0 0 N 1024,2 4,0
12.11.2018 02:00:00 14,9 14,4 5 3 O 1024,0 4,0
12.11.2018 01:00:00 15,0 14,5 5 3 O 1024,0 4,0
12.11.2018 00:00:00 15,0 14,5 4 2 SSO 1024,0 4,0
11.11.2018 23:00:00 15,0 14,5 4 2 ONO 1023,8 4,0
11.11.2018 22:00:00 15,1 14,6 2 1 O 1023,8 5
11.11.2018 21:00:00 15,1 14,5 4 2 N 1023,3 5
11.11.2018 20:00:00 15,2 14,4 2 1 E 1022,6 6
11.11.2018 19:00:00 15,2 13,7 2 1 S 1022,6 7
11.11.2018 18:00:00 15,8 14,2 4 2 SE 1021,9 7
11.11.2018 17:00:00 16,2 14,0 4 2 SSE 1021,6 6
11.11.2018 16:00:00 16,6 13,7 4 2 SE 1021,2 6
11.11.2018 15:00:00 16,4 13,1 4 2 E 1020,7 6
11.11.2018 14:00:00 16,3 12,9 5 3 E 1020,6 6
11.11.2018 13:00:00 16,2 12,9 9 5 E 1020,6 6
11.11.2018 12:00:00 15,6 13,1 9 5 E 1020,4 6
11.11.2018 11:00:00 15,2 13,2 9 5 ENE 1020,2 5
11.11.2018 10:00:00 14,8 13,2 9 5 ENE 1019,6 5
11.11.2018 09:00:00 14,0 12,4 8 4 ENE 1019,0 5
11.11.2018 08:00:00 13,8 12,5 11 6 E 1018,4 5
11.11.2018 07:00:00 13,8 12,5 11 6 ENE 1018,2 5
11.11.2018 06:00:00 13,9 12,5 11 6 E 1017,7 5
11.11.2018 05:00:00 13,8 12,4 13 7 E 1017,5 5
11.11.2018 04:00:00 13,6 12,7 11 6 E 1017,5 5
11.11.2018 03:00:00 13,3 12,5 11 6 E 1017,5 5
11.11.2018 02:00:00 13,3 12,4 11 6 E 1017,3 5
11.11.2018 01:00:00 13,2 12,1 13 7 ENE 1017,3 5
11.11.2018 00:00:00 13,0 11,6 15 8 ENE 1017,5 5
10.11.2018 23:00:00 13,0 12,1 15 8 E 1017,5 5
10.11.2018 22:00:00 13,0 12,2 13 7 E 1017,5 4,0
10.11.2018 21:00:00 13,1 12,3 13 7 E 1017,4 3,0
10.11.2018 20:00:00 13,0 12,2 11 6 E 1017,4 3,0
10.11.2018 19:00:00 13,0 12,1 11 6 ESE 1017,2 3,0
10.11.2018 18:00:00 13,6 12,0 11 6 SE 1017,0 3,0
10.11.2018 17:00:00 13,8 12,2 11 6 SE 1017,0 2,5
10.11.2018 16:00:00 14,0 12,1 11 6 SE 1016,7 2,6
10.11.2018 15:00:00 14,0 12,0 13 7 SE 1016,7 2,8
10.11.2018 14:00:00 14,1 12,0 11 6 ESE 1016,9 2,8
10.11.2018 13:00:00 14,0 12,1 9 5 ESE 1017,2 2,8
10.11.2018 12:00:00 14,1 12,1 13 7 ESE 1017,6 2,5
10.11.2018 11:00:00 14,0 12,0 8 4 SE 1017,9 2,0
10.11.2018 10:00:00 14,0 12,2 8 4 ESE 1017,8 1,6
10.11.2018 09:00:00 13,2 11,6 9 5 SE 1017,5 1,5
10.11.2018 08:00:00 13,2 11,1 4 2 ESE 1017,0 1,5
10.11.2018 07:00:00 13,0 10,7 5 3 S 1017,0 1,5
10.11.2018 06:00:00 13,0 11,1 4 2 SSE 1017,3 1,5
10.11.2018 05:00:00 13,0 11,1 5 3 SSE 1017,6 1,0
10.11.2018 04:00:00 13,0 12,7 5 3 SSE 1017,8 0,6
10.11.2018 03:00:00 13,0 12,7 8 4 SSE 1017,9 0,6
10.11.2018 02:00:00 12,8 12,5 8 4 SSE 1017,9 0,4
10.11.2018 01:00:00 13,0 12,7 8 4 SSE 1018,1 0,4
10.11.2018 00:00:00 13,5 13,2 5 3 SSE 1018,5 0,4
09.11.2018 23:00:00 13,8 13,5 4 2 SE 1018,6 0,4
09.11.2018 22:00:00 14,0 13,7 5 3 SE 1018,5 0,6
09.11.2018 21:00:00 14,2 13,9 5 3 SSE 1018,5 3,0
09.11.2018 20:00:00 15,0 14,7 5 3 S 1018,3 3,0
09.11.2018 19:00:00 15,2 14,9 5 3 S 1018,1 4,0
09.11.2018 18:00:00 16,3 15,2 8 4 SSE 1018,0 4,0
09.11.2018 17:00:00 17,0 14,7 4 2 SSE 1018,0 4,0
09.11.2018 16:00:00 17,2 14,7 4 2 SSE 1018,3 4,0
09.11.2018 15:00:00 17,1 14,4 4 2 SSO 1018,6 4,0
09.11.2018 14:00:00 17,0 14,7 4 2 SSO 1018,6 4,0
09.11.2018 13:00:00 16,4 14,6 5 3 SSE 1019,1 4,0
09.11.2018 12:00:00 16,5 14,9 8 4 SSE 1019,5 3,0
09.11.2018 11:00:00 16,1 14,5 9 5 SE 1019,9 3,0
09.11.2018 10:00:00 15,4 14,1 5 3 SE 1020,0 3,0
09.11.2018 09:00:00 14,2 13,4 4 2 SSE 1020,0 2,0
09.11.2018 08:00:00 14,0 13,4 4 2 ESE 1019,7 1,0

tt = Temperatura
td = dewpoint
ff = velocità del vento
dd = direzione del vento
ppp = reduced air pressure
vv = visibility

Stazioni seguenti

WeatherPro
AMSI
MeteoEarth